"2016-02-05 00:00:00",1346331,2.782,18.71,6.094,1.205,2.63,98.63199,-4.185,-2.803,31.34,0,109.5,13.43,-3.45,340.7
"2016-02-05 00:00:30",1346332,1.782,14.61,8.24,1.414,1.297,98.63311,-4.182,-2.843,31.48,0,109.5,13.43,-3.45,336.6
"2016-02-05 00:01:00",1346333,1.14,7.171,8.78,1.17,-0.062,98.63394,-4.18,-3.011,31.52,0,109.5,13.42,-3.44,329.2
"2016-02-05 00:01:30",1346334,0.487,3.518,6.473,0.134,-1.775,98.62996,-4.19,-3.085,31.67,0,109.5,13.47,-3.45,325.5
"2016-02-05 00:02:00",1346335,0.373,12.2,5.047,0.078,-1.861,98.62256,-4.209,-3.104,31.84,0,109.5,13.47,-3.47,334.2
"2016-02-05 00:02:30",1346336,1.327,20.1,8.73,1.296,-0.115,98.62085,-4.214,-3.006,32,0,109.5,13.43,-3.48,342.1
"2016-02-05 00:03:00",1346337,2.76,27.77,6.549,1.325,1.758,98.61292,-4.234,-2.895,32.09,0,109.5,13.43,-3.50,349.8
"2016-02-05 00:03:30",1346338,3.151,29.88,6.74,1.253,2.042,98.60838,-4.245,-2.852,31.75,0,109.5,13.43,-3.51,351.9
"2016-02-05 00:04:00",1346339,3.274,30.77,7.279,1.35,1.691,98.60639,-4.25,-2.884,31.25,0,109.5,13.43,-3.51,352.8
"2016-02-05 00:04:30",1346340,2.12,22.98,8.7,1.305,0.203,98.60611,-4.251,-3.048,30.83,0,109.5,13.43,-3.51,345.0
"2016-02-05 00:05:00",1346341,0.603,11.61,4.913,0.166,-1.724,98.60639,-4.25,-3.156,30.87,0,109.5,13.47,-3.51,333.6
"2016-02-05 00:05:30",1346342,1.034,14.29,6.161,1.087,-0.575,98.60526,-4.253,-3.084,31.26,0,109.5,13.43,-3.52,336.3
"2016-02-05 00:06:00",1346343,1.991,22.47,10.41,1.46,0.686,98.59534,-4.279,-2.97,31.53,0,109.4,13.43,-3.54,344.5
"2016-02-05 00:06:30",1346344,2.222,24.74,7.065,1.347,1.353,98.5891,-4.294,-2.926,31.48,0,109.5,13.43,-3.56,346.7
"2016-02-05 00:07:00",1346345,2.376,24.5,8.26,1.363,1.493,98.58146,-4.314,-2.945,31.19,0,109.5,13.42,-3.58,346.5
"2016-02-05 00:07:30",1346346,1.877,22.27,8.5,1.318,0.398,98.57438,-4.332,-3.015,31.03,0,109.5,13.42,-3.60,344.3
"2016-02-05 00:08:00",1346347,1.173,19.91,4.975,0.832,-1.149,98.57268,-4.336,-3.142,31.2,0,109.5,13.43,-3.60,341.9
"2016-02-05 00:08:30",1346348,1.531,21.1,2.998,0.518,-1.795,98.5724,-4.337,-3.158,31.39,0,109.5,13.47,-3.60,343.1
"2016-02-05 00:09:00",1346349,2.649,21.64,7.683,1.282,0.699,98.57268,-4.336,-3.096,31.15,0,109.5,13.42,-3.60,343.6
"2016-02-05 00:09:30",1346350,2.871,23.87,6.799,1.353,2.205,98.57267,-4.336,-3.002,31.21,0,109.5,13.42,-3.60,345.9
"2016-02-05 00:10:00",1346351,2.72,20.66,7.182,1.35,1.784,98.56895,-4.346,-3.002,31.46,0,109.5,13.42,-3.61,342.7
"2016-02-05 00:10:30",1346352,2.232,13.49,7.828,1.304,1.371,98.56326,-4.36,-3.046,31.75,0,109.5,13.42,-3.62,335.5
"2016-02-05 00:11:00",1346353,1.215,19.36,3.527,0.867,-0.833,98.56069,-4.367,-3.239,32.03,0,109.5,13.42,-3.63,341.4
"2016-02-05 00:11:30",1346354,0.687,27.83,2.164,0.084,-1.029,98.56094,-4.366,-3.248,32.41,0,109.5,13.47,-3.63,349.8
"2016-02-05 00:12:00",1346355,1.035,31.9,6.783,1.106,0.285,98.56175,-4.364,-3.136,32.7,0,109.5,13.43,-3.63,353.9
"2016-02-05 00:12:30",1346356,1.834,30.95,7.641,1.366,1.78,98.55972,-4.369,-3.111,32.84,0,109.5,13.43,-3.63,353.0
"2016-02-05 00:13:00",1346357,1.549,26.97,10.01,1.351,1.506,98.55629,-4.378,-3.145,32.88,0,109.5,13.43,-3.64,349.0
"2016-02-05 00:13:30",1346358,1.376,26.42,11.26,1.369,0.832,98.55432,-4.383,-3.149,32.98,0,109.5,13.43,-3.65,348.4
"2016-02-05 00:14:00",1346359,1.688,21.07,10.61,1.432,1.009,98.55571,-4.38,-3.145,33,0,109.5,13.43,-3.64,343.1
"2016-02-05 00:14:30",1346360,1.276,21.15,2.721,0.291,-1.967,98.55655,-4.377,-3.294,32.9,0,109.5,13.48,-3.64,343.1
"2016-02-05 00:15:00",1346361,2.03,24.89,4.494,0.8,-1.542,98.55684,-4.377,-3.242,32.8,0,109.5,13.44,-3.64,346.9
"2016-02-05 00:15:30",1346362,3.26,28.68,7.377,1.294,1.558,98.55934,-4.37,-3.117,32.3,0,109.5,13.43,-3.63,350.7
"2016-02-05 00:16:00",1346363,2.9,25.16,6.811,1.242,2.305,98.55595,-4.379,-3.07,32,0,109.5,13.44,-3.64,347.2
"2016-02-05 00:16:30",1346364,2.436,34.66,6.865,1.308,2.793,98.54773,-4.4,-3.07,32.35,0,109.5,13.44,-3.66,356.7
"2016-02-05 00:17:00",1346365,1.146,34.18,6.971,1.23,0.563,98.54292,-4.412,-3.216,32.56,0,109.5,13.44,-3.68,356.2
"2016-02-05 00:17:30",1346366,0.449,27.85,3.46,0.138,-1.221,98.54039,-4.419,-3.327,32.75,0,109.4,13.48,-3.68,349.9
"2016-02-05 00:18:00",1346367,0.468,28.01,2.167,0.093,-1.362,98.54149,-4.416,-3.32,32.94,0,109.4,13.48,-3.68,350.0
"2016-02-05 00:18:30",1346368,0.715,30.84,5.44,0.719,-0.632,98.54401,-4.409,-3.259,33.14,0,109.4,13.44,-3.67,352.8
"2016-02-05 00:19:00",1346369,2.383,43.63,6.962,1.253,2.241,98.54032,-4.419,-3.146,33.37,0,109.5,13.44,-3.68,5.6
"2016-02-05 00:19:30",1346370,2.235,45.18,6.574,1.314,2.738,98.53834,-4.424,-3.09,33.54,0,109.4,13.44,-3.69,7.2
"2016-02-05 00:20:00",1346371,2.025,43.32,6.045,1.333,2.944,98.53774,-4.425,-3.057,33.54,0,109.4,13.44,-3.69,5.3
"2016-02-05 00:20:30",1346372,1.207,36.94,6.779,1.298,0.907,98.53404,-4.435,-3.247,33.37,0,109.4,13.44,-3.70,358.9
"2016-02-05 00:21:00",1346373,0.216,31.31,2.73,0.071,-1.271,98.53288,-4.438,-3.345,33.25,0,109.4,13.48,-3.70,353.3
"2016-02-05 00:21:30",1346374,0.435,28.54,3.418,0.063,-1.636,98.53344,-4.436,-3.33,33.24,0,109.4,13.48,-3.70,350.5
"2016-02-05 00:22:00",1346375,0.477,23.11,5.458,0.098,-1.437,98.5326,-4.438,-3.336,33.25,0,109.4,13.49,-3.70,345.1
"2016-02-05 00:22:30",1346376,1.811,26.54,8.65,1.5,0.698,98.53233,-4.439,-3.171,33.45,0,109.4,13.44,-3.70,348.5
"2016-02-05 00:23:00",1346377,2.497,39.5,8.48,1.331,2.422,98.5326,-4.438,-3.105,33.48,0,109.4,13.44,-3.70,1.5
"2016-02-05 00:23:30",1346378,2.383,45.63,6.704,1.278,2.678,98.53316,-4.437,-3.096,33.53,0,109.4,13.44,-3.70,7.6
"2016-02-05 00:24:00",1346379,1.201,39.69,6.634,1.258,0.673,98.534,-4.435,-3.174,33.57,0,109.4,13.43,-3.70,1.7
"2016-02-05 00:24:30",1346380,0.322,36.32,2.479,0.071,-1.371,98.53455,-4.433,-3.342,33.44,0,109.4,13.48,-3.70,358.3
"2016-02-05 00:25:00",1346381,0.302,39.92,1.764,0.035,-1.33,98.53484,-4.433,-3.338,33.45,0,109.4,13.48,-3.70,1.9
"2016-02-05 00:25:30",1346382,0.213,44.9,2.187,0.032,-0.869,98.53288,-4.438,-3.344,33.47,0,109.4,13.48,-3.70,6.9
"2016-02-05 00:26:00",1346383,1.368,56.15,7.393,1.358,1.528,98.53484,-4.433,-3.16,33.62,0,109.4,13.43,-3.70,18.2
"2016-02-05 00:26:30",1346384,1.799,48.63,8.25,1.339,2.499,98.53623,-4.429,-3.152,33.62,0,109.4,13.43,-3.69,10.6
"2016-02-05 00:27:00",1346385,1.435,30.65,5.021,1.38,1.176,98.53623,-4.429,-3.124,33.64,0,109.4,13.43,-3.69,352.6
"2016-02-05 00:27:30",1346386,1.491,25.08,10.96,1.383,0.373,98.53596,-4.43,-3.249,33.52,0,109.4,13.43,-3.69,347.1
"2016-02-05 00:28:00",1346387,1.032,28.19,5.95,1.029,-0.536,98.53651,-4.428,-3.249,33.53,0,109.4,13.43,-3.69,350.2
"2016-02-05 00:28:30",1346388,0.442,30.3,3.235,0.107,-1.675,98.53707,-4.427,-3.334,33.49,0,109.4,13.48,-3.69,352.3
"2016-02-05 00:29:00",1346389,0.446,34.23,3.14,0.084,-1.382,98.53763,-4.426,-3.345,33.58,0,109.4,13.49,-3.69,356.2
"2016-02-05 00:29:30",1346390,1.783,41.07,7.75,1.369,1.312,98.53763,-4.426,-3.158,33.85,0,109.4,13.44,-3.69,3.1
"2016-02-05 00:30:00",1346391,1.902,38.84,8.73,1.309,2.262,98.53791,-4.425,-3.131,33.98,0,109.4,13.44,-3.69,0.8
"2016-02-05 00:30:30",1346392,2.139,40.29,7.278,1.272,2.535,98.53707,-4.427,-3.127,33.98,0,109.4,13.44,-3.69,2.3
"2016-02-05 00:31:00",1346393,0.963,41.18,7.336,1.189,0.569,98.53791,-4.425,-3.197,33.87,0,109.4,13.44,-3.69,3.2
"2016-02-05 00:31:30",1346394,0.636,39.5,6.567,1.064,0.116,98.53791,-4.425,-3.274,33.78,0,109.4,13.44,-3.69,1.5
"2016-02-05 00:32:00",1346395,0.383,30.3,4.576,0.128,-1.754,98.53791,-4.425,-3.321,33.71,0,109.4,13.49,-3.69,352.3
"2016-02-05 00:32:30",1346396,0.419,29.13,2.913,0.102,-1.564,98.53791,-4.425,-3.338,33.72,0,109.4,13.49,-3.69,351.1
"2016-02-05 00:33:00",1346397,1.489,34.49,7.103,1.351,0.772,98.53791,-4.425,-3.2,33.85,0,109.4,13.44,-3.69,356.5
"2016-02-05 00:33:30",1346398,2.256,39,7.854,1.289,2.416,98.53791,-4.425,-3.101,34.02,0,109.4,13.45,-3.69,1.0
"2016-02-05 00:34:00",1346399,1.904,38.18,7.201,1.384,1.976,98.53791,-4.425,-3.12,34.08,0,109.4,13.45,-3.69,0.2
"2016-02-05 00:34:30",1346400,1.643,36,7.555,1.281,1.123,98.53791,-4.425,-3.16,34.01,0,109.4,13.44,-3.69,358.0
"2016-02-05 00:35:00",1346401,0.896,29.16,4.872,0.635,-1.466,98.53791,-4.425,-3.33,33.75,0,109.4,13.44,-3.69,351.2
"2016-02-05 00:35:30",1346402,0.917,27.19,3.001,0.186,-1.927,98.53791,-4.425,-3.326,33.39,0,109.4,13.49,-3.69,349.2
"2016-02-05 00:36:00",1346403,2.009,30.36,5.804,1.324,-0.777,98.53791,-4.425,-3.266,32.93,0,109.4,13.44,-3.69,352.4
"2016-02-05 00:36:30",1346404,3.221,40.74,6.844,1.207,2.274,98.53791,-4.425,-3.098,32.36,0,109.5,13.45,-3.69,2.7
"2016-02-05 00:37:00",1346405,3.12,41.65,7.675,1.295,1.862,98.53791,-4.425,-3.077,31.68,0,109.4,13.45,-3.69,3.7
"2016-02-05 00:37:30",1346406,3.167,41.07,7.861,1.35,1.674,98.53791,-4.425,-3.099,30.92,0,109.5,13.45,-3.69,3.1
"2016-02-05 00:38:00",1346407,1.893,34.92,6.454,1.218,-0.335,98.53791,-4.425,-3.226,30.56,0,109.5,13.45,-3.69,356.9
"2016-02-05 00:38:30",1346408,1.189,32.72,2.26,0.107,-1.907,98.53791,-4.425,-3.35,30.39,0,109.5,13.49,-3.69,354.7
"2016-02-05 00:39:00",1346409,2.404,38.63,6.999,1.35,0.749,98.53734,-4.426,-3.172,30.56,0,109.5,13.45,-3.69,0.6
"2016-02-05 00:39:30",1346410,2.484,40.2,7.307,1.403,1.065,98.53252,-4.439,-3.222,30.74,0,109.5,13.45,-3.70,2.2
"2016-02-05 00:40:00",1346411,2.516,41.77,7.191,1.361,1.389,98.52232,-4.465,-3.182,31.15,0,109.5,13.45,-3.73,3.8
"2016-02-05 00:40:30",1346412,2.361,44.09,7.137,1.295,1.767,98.51807,-4.475,-3.137,31.4,0,109.5,13.44,-3.74,6.1
"2016-02-05 00:41:00",1346413,1.734,40.72,7.223,1.202,-0.037,98.51723,-4.478,-3.271,31.54,0,109.5,13.44,-3.74,2.7
"2016-02-05 00:41:30",1346414,1.004,37.38,2.71,0.219,-1.578,98.51099,-4.493,-3.362,31.67,0,109.5,13.48,-3.76,359.4
"2016-02-05 00:42:00",1346415,2.346,43.73,7.235,1.387,0.922,98.50561,-4.507,-3.208,31.88,0,109.5,13.44,-3.77,5.7
"2016-02-05 00:42:30",1346416,2.328,41.94,7.179,1.297,0.114,98.50419,-4.511,-3.276,31.61,0,109.5,13.44,-3.77,3.9
"2016-02-05 00:43:00",1346417,2.932,45.54,6.769,1.327,1.211,98.50475,-4.509,-3.25,31.53,0,109.5,13.44,-3.77,7.5
"2016-02-05 00:43:30",1346418,3.47,48.56,7.221,1.287,1.878,98.50614,-4.506,-3.155,31.65,0,109.5,13.44,-3.77,10.6
"2016-02-05 00:44:00",1346419,2.855,46.22,7.118,1.358,1.223,98.50443,-4.51,-3.231,31.68,0,109.5,13.44,-3.77,8.2
"2016-02-05 00:44:30",1346420,2.714,42.55,6.592,1.221,0.165,98.49422,-4.536,-3.31,31.48,0,109.5,13.44,-3.80,4.5
"2016-02-05 00:45:00",1346421,3.281,45.84,7.302,1.381,1.28,98.48598,-4.557,-3.264,31.24,0,109.4,13.44,-3.82,7.8
"2016-02-05 00:45:30",1346422,2.491,44.52,6.444,1.118,0.396,98.48251,-4.566,-3.249,31.39,0,109.4,13.44,-3.83,6.5
"2016-02-05 00:46:00",1346423,3.693,49.94,6.586,1.293,1.521,98.48107,-4.57,-3.291,31.55,0,109.4,13.45,-3.83,11.9
"2016-02-05 00:46:30",1346424,3.663,55.06,7.191,1.297,1.889,98.48357,-4.563,-3.226,31.44,0,109.4,13.45,-3.83,17.1
"2016-02-05 00:47:00",1346425,3.211,52.7,7.465,1.301,1.031,98.48608,-4.557,-3.299,31.41,0,109.4,13.45,-3.82,14.7
"2016-02-05 00:47:30",1346426,3.264,49.57,7.076,1.371,0.996,98.48608,-4.557,-3.33,31.51,0,109.4,13.45,-3.82,11.6
"2016-02-05 00:48:00",1346427,2.809,46.59,7.042,1.236,0.357,98.48524,-4.559,-3.348,31.65,0,109.4,13.45,-3.82,8.6
"2016-02-05 00:48:30",1346428,3.638,49.57,7.259,1.36,1.33,98.48322,-4.564,-3.369,31.59,0,109.4,13.45,-3.83,11.6
"2016-02-05 00:49:00",1346429,3.85,50.01,7.008,1.334,2.032,98.47609,-4.582,-3.276,31.54,0,109.4,13.45,-3.85,12.0
"2016-02-05 00:49:30",1346430,3.52,47.39,7.508,1.434,1.343,98.47523,-4.584,-3.315,31.63,0,109.4,13.45,-3.85,9.4
"2016-02-05 00:50:00",1346431,2.734,40.86,6.413,1.173,0.337,98.47043,-4.597,-3.317,31.8,0,109.4,13.45,-3.86,2.9
"2016-02-05 00:50:30",1346432,3.7,45.99,6.472,1.284,1.282,98.46755,-4.604,-3.388,31.71,0,109.4,13.45,-3.87,8.0
"2016-02-05 00:51:00",1346433,2.554,40.18,6.275,1.17,0.15,98.4585,-4.627,-3.446,31.65,0,109.4,13.45,-3.89,2.2
"2016-02-05 00:51:30",1346434,3.126,43.55,7.295,1.391,1.258,98.45934,-4.625,-3.354,31.79,0,109.4,13.45,-3.89,5.5
"2016-02-05 00:52:00",1346435,3.403,46.28,7.232,1.328,1.645,98.45934,-4.625,-3.325,31.94,0,109.4,13.45,-3.89,8.3
"2016-02-05 00:52:30",1346436,3.109,43.49,6.748,1.27,1.154,98.45989,-4.624,-3.394,31.97,0,109.4,13.45,-3.89,5.5
"2016-02-05 00:53:00",1346437,3.073,43.73,6.533,1.279,0.707,98.46073,-4.621,-3.44,31.95,0,109.4,13.45,-3.89,5.7
"2016-02-05 00:53:30",1346438,3.23,43.63,6.671,1.266,0.734,98.46129,-4.62,-3.38,32.03,0,109.4,13.45,-3.88,5.6
"2016-02-05 00:54:00",1346439,3.786,46.3,6.785,1.31,1.128,98.45931,-4.625,-3.493,31.98,0,109.4,13.45,-3.89,8.3
"2016-02-05 00:54:30",1346440,3.466,47.01,6.98,1.305,1.32,98.44882,-4.652,-3.364,32.29,0,109.4,13.45,-3.92,9.0
"2016-02-05 00:55:00",1346441,3.28,46.14,6.724,1.305,1.828,98.44511,-4.661,-3.399,32.38,0,109.4,13.45,-3.93,8.1
"2016-02-05 00:55:30",1346442,2.39,39.66,7.222,1.39,0.582,98.44314,-4.666,-3.463,32.35,0,109.4,13.45,-3.93,1.7
"2016-02-05 00:56:00",1346443,2.455,40.83,6.042,1.34,1.344,98.44341,-4.665,-3.423,32.58,0,109.4,13.45,-3.93,2.8
"2016-02-05 00:56:30",1346444,2.044,37.96,6.108,1.224,-0.043,98.4417,-4.67,-3.533,32.59,0,109.4,13.45,-3.93,360.0
"2016-02-05 00:57:00",1346445,2.068,38.53,6.495,1.17,-0.497,98.43858,-4.678,-3.595,32.49,0,109.4,13.45,-3.94,0.5
"2016-02-05 00:57:30",1346446,3.044,43.55,7.321,1.43,1.227,98.43856,-4.678,-3.369,32.65,0,109.4,13.45,-3.94,5.5
"2016-02-05 00:58:00",1346447,3.636,46.07,7.075,1.379,1.63,98.43404,-4.689,-3.399,32.58,0,109.4,13.45,-3.95,8.1
"2016-02-05 00:58:30",1346448,3.9,46.33,6.589,1.29,2.144,98.43204,-4.694,-3.415,32.57,0,109.4,13.45,-3.96,8.3
"2016-02-05 00:59:00",1346449,3.353,44.26,6.903,1.333,1.509,98.4323,-4.694,-3.441,32.5,0,109.4,13.45,-3.96,6.3
"2016-02-05 00:59:30",1346450,2.649,41.01,6.076,1.144,0.033,98.43285,-4.692,-3.506,32.54,0,109.4,13.45,-3.96,3.0
"2016-02-05 01:00:00",1346451,2.678,40.88,5.887,1.227,0.096,98.43369,-4.69,-3.528,32.72,0,109.4,13.45,-3.95,2.9
"2016-02-05 01:00:30",1346452,3.373,45.36,7.172,1.294,2.233,98.43369,-4.69,-3.384,33,0,109.4,13.45,-3.95,7.4
"2016-02-05 01:01:00",1346453,2.185,38.95,7.465,1.304,1.146,98.43398,-4.69,-3.49,32.96,0,109.4,13.45,-3.95,1.0
"2016-02-05 01:01:30",1346454,2.09,36.64,7.332,1.333,1.008,98.43314,-4.692,-3.488,33.02,0,109.4,13.45,-3.96,358.6
"2016-02-05 01:02:00",1346455,2.469,40.56,7.21,1.335,0.806,98.43285,-4.692,-3.555,33.02,0,109.4,13.45,-3.96,2.6
"2016-02-05 01:02:30",1346456,2.521,40.84,4.945,1.146,-0.124,98.43314,-4.692,-3.548,33.11,0,109.4,13.45,-3.96,2.8
"2016-02-05 01:03:00",1346457,2.871,42.57,6.169,1.289,-0.193,98.43453,-4.688,-3.543,33.12,0,109.4,13.45,-3.95,4.6
"2016-02-05 01:03:30",1346458,4.046,48.89,6.637,1.334,2.157,98.43481,-4.687,-3.407,33.01,0,109.4,13.45,-3.95,10.9
"2016-02-05 01:04:00",1346459,4.303,49.27,6.889,1.263,2.261,98.43481,-4.687,-3.411,32.91,0,109.4,13.46,-3.95,11.3
"2016-02-05 01:04:30",1346460,4.157,49.14,6.984,1.286,2.146,98.43537,-4.686,-3.4,32.83,0,109.4,13.46,-3.95,11.1
"2016-02-05 01:05:00",1346461,3.508,45.61,7.122,1.387,1.337,98.43537,-4.686,-3.544,32.72,0,109.4,13.45,-3.95,7.6
"2016-02-05 01:05:30",1346462,2.787,41.47,6.251,1.257,0.544,98.43537,-4.686,-3.555,32.8,0,109.4,13.45,-3.95,3.5
"2016-02-05 01:06:00",1346463,2.287,39.57,6.469,1.237,0.471,98.43537,-4.686,-3.475,33.04,0,109.4,13.46,-3.95,1.6
"2016-02-05 01:06:30",1346464,2.684,41.7,6.775,1.348,1.506,98.43537,-4.686,-3.422,33.24,0,109.4,13.46,-3.95,3.7
"2016-02-05 01:07:00",1346465,2.81,43.17,6.938,1.341,1.257,98.43537,-4.686,-3.499,33.22,0,109.4,13.46,-3.95,5.2
"2016-02-05 01:07:30",1346466,3.282,45.13,7.206,1.298,1.438,98.43537,-4.686,-3.494,33.18,0,109.4,13.46,-3.95,7.1
"2016-02-05 01:08:00",1346467,2.918,42.94,6.683,1.262,0.26,98.43537,-4.686,-3.551,32.98,0,109.4,13.46,-3.95,4.9
"2016-02-05 01:08:30",1346468,3.243,42.61,6.566,1.351,0.716,98.43537,-4.686,-3.447,32.79,0,109.4,13.46,-3.95,4.6
"2016-02-05 01:09:00",1346469,3.533,45.74,7.016,1.301,1.845,98.43537,-4.686,-3.418,32.62,0,109.4,13.46,-3.95,7.7
"2016-02-05 01:09:30",1346470,2.54,40.17,7.022,1.322,0.541,98.43537,-4.686,-3.454,32.68,0,109.4,13.46,-3.95,2.2
"2016-02-05 01:10:00",1346471,2.223,37.75,7.041,1.339,0.223,98.43537,-4.686,-3.552,32.91,0,109.4,13.46,-3.95,359.8
"2016-02-05 01:10:30",1346472,2.568,40.19,7.446,1.376,1.308,98.43537,-4.686,-3.503,33.22,0,109.4,13.46,-3.95,2.2
"2016-02-05 01:11:00",1346473,1.835,36.41,7.014,1.21,0.022,98.43537,-4.686,-3.574,33.38,0,109.4,13.46,-3.95,358.4
"2016-02-05 01:11:30",1346474,1.831,37.67,6.179,1.135,-0.188,98.43537,-4.686,-3.543,33.52,0,109.4,13.46,-3.95,359.7
"2016-02-05 01:12:00",1346475,3.011,44.29,6.98,1.339,1.713,98.43537,-4.686,-3.463,33.66,0,109.4,13.46,-3.95,6.3
"2016-02-05 01:12:30",1346476,3.169,45.88,6.802,1.321,1.368,98.43537,-4.686,-3.487,33.58,0,109.4,13.46,-3.95,7.9
"2016-02-05 01:13:00",1346477,3.45,49.34,6.834,1.318,2.229,98.43537,-4.686,-3.416,33.65,0,109.4,13.46,-3.95,11.3
"2016-02-05 01:13:30",1346478,2.82,48.86,6.98,1.345,0.741,98.43537,-4.686,-3.566,33.67,0,109.4,13.46,-3.95,10.9
"2016-02-05 01:14:00",1346479,3.021,54.81,7.113,1.303,1.669,98.43537,-4.686,-3.524,33.95,0,109.4,13.45,-3.95,16.8
"2016-02-05 01:14:30",1346480,2.459,55.42,6.648,1.297,1.244,98.43537,-4.686,-3.476,34.17,0,109.4,13.45,-3.95,17.4
"2016-02-05 01:15:00",1346481,2.992,53.95,6.943,1.302,1.792,98.43537,-4.686,-3.432,34.3,0,109.4,13.45,-3.95,16.0
"2016-02-05 01:15:30",1346482,2.24,42.14,6.668,1.151,0.002,98.43537,-4.686,-3.539,34.24,0,109.4,13.45,-3.95,4.1
"2016-02-05 01:16:00",1346483,2.531,33.26,7.906,1.32,0.715,98.43537,-4.686,-3.463,34.28,0,109.4,13.45,-3.95,355.3
"2016-02-05 01:16:30",1346484,2.267,24.5,9.74,1.353,1.64,98.43537,-4.686,-3.489,34.3,0,109.4,13.45,-3.95,346.5
"2016-02-05 01:17:00",1346485,0.495,83,33.25,1.049,0.93,98.43537,-4.686,-3.535,34.18,0,109.4,13.45,-3.95,45.0
"2016-02-05 01:17:30",1346486,0.917,102.5,29.97,1.153,0.795,98.43537,-4.686,-3.549,34.06,0,109.4,13.45,-3.95,64.5
"2016-02-05 01:18:00",1346487,2.109,57.91,7.726,1.389,0.57,98.44699,-4.656,-3.522,34.03,0,109.4,13.45,-3.92,19.9
"2016-02-05 01:18:30",1346488,3.008,57,6.499,1.42,-0.125,98.44897,-4.651,-3.439,32.1,0,109.4,13.45,-3.92,19.0
"2016-02-05 01:19:00",1346489,4.197,55.28,6.856,1.266,0.021,98.44302,-4.666,-3.466,30.96,0,109.4,13.46,-3.93,17.3
"2016-02-05 01:19:30",1346490,4.828,55,7.103,1.367,0.638,98.44019,-4.674,-3.439,30.09,0,109.4,13.46,-3.94,17.0
"2016-02-05 01:20:00",1346491,4.586,52.86,6.9,1.36,1.493,98.43537,-4.686,-3.419,29.57,0,109.4,13.46,-3.95,14.9
"2016-02-05 01:20:30",1346492,4.148,52.59,6.287,1.308,2.104,98.43537,-4.686,-3.38,30.02,0,109.4,13.46,-3.95,14.6
"2016-02-05 01:21:00",1346493,3.256,57.43,7.678,1.335,2.227,98.43537,-4.686,-3.421,31.03,0,109.4,13.46,-3.95,19.4
"2016-02-05 01:21:30",1346494,2.377,102,28.79,1.37,2.44,98.43537,-4.686,-3.432,32.45,0,109.4,13.46,-3.95,64.0
"2016-02-05 01:22:00",1346495,1.353,154.3,9.59,0.255,0.846,98.43537,-4.686,-3.649,32.74,0,109.4,13.5,-3.95,116.3
"2016-02-05 01:22:30",1346496,2.054,149,9.02,1.239,1.381,98.43565,-4.685,-3.523,32.23,0,109.4,13.46,-3.95,111.0
"2016-02-05 01:23:00",1346497,2.472,93.1,24.3,1.407,1.756,98.45918,-4.625,-3.463,33.39,0,109.4,13.46,-3.89,55.1
"2016-02-05 01:23:30",1346498,2.751,55.5,7.893,1.369,1.424,98.46938,-4.599,-3.424,34.3,0,109.4,13.46,-3.86,17.5
"2016-02-05 01:24:00",1346499,2.889,41.01,7.418,1.377,2.053,98.47363,-4.589,-3.356,34.62,0,109.4,13.46,-3.85,3.0
"2016-02-05 01:24:30",1346500,2.819,38.77,7.255,1.319,1.29,98.47789,-4.578,-3.395,34.36,0,109.4,13.46,-3.84,0.8
"2016-02-05 01:25:00",1346501,0.962,35.18,1.85,0.155,-1.739,98.47959,-4.573,-3.541,33.6,0,109.4,13.51,-3.84,357.2
"2016-02-05 01:25:30",1346502,1.723,34.88,6.977,1.217,0.082,98.48129,-4.569,-3.457,33.19,0,109.4,13.46,-3.83,356.9
"2016-02-05 01:26:00",1346503,2.637,50.31,8.9,1.467,1.016,98.48242,-4.566,-3.399,33.39,0,109.4,13.46,-3.83,12.3
"2016-02-05 01:26:30",1346504,2.971,56.88,6.752,1.3,0.17,98.48412,-4.562,-3.471,32.89,0,109.4,13.46,-3.83,18.9
"2016-02-05 01:27:00",1346505,4.267,66.11,6.695,1.293,1.67,98.48441,-4.561,-3.326,32.29,0,109.4,13.46,-3.83,28.1
"2016-02-05 01:27:30",1346506,4.47,63.88,7.295,1.303,1.31,98.48214,-4.567,-3.339,31.71,0,109.4,13.46,-3.83,25.9
"2016-02-05 01:28:00",1346507,5.165,61.21,6.792,1.21,1.647,98.47874,-4.576,-3.296,31.25,0,109.4,13.46,-3.84,23.2
"2016-02-05 01:28:30",1346508,5.044,53.44,7.476,1.213,0.38,98.47506,-4.585,-3.396,30.38,0,109.4,13.46,-3.85,15.4
"2016-02-05 01:29:00",1346509,5.845,51.67,7.178,1.321,0.214,98.46967,-4.599,-3.345,29.13,0,109.4,13.46,-3.86,13.7
"2016-02-05 01:29:30",1346510,6.662,52.01,6.559,1.234,1.582,98.4674,-4.604,-3.32,28.08,0,109.4,13.46,-3.87,14.0
"2016-02-05 01:30:00",1346511,6.506,50.41,6.582,1.236,1.909,98.44897,-4.651,-3.31,27.72,0,109.4,13.46,-3.92,12.4
"2016-02-05 01:30:30",1346512,6.183,49.47,6.473,1.241,2.427,98.43621,-4.684,-3.312,27.8,0,109.4,13.46,-3.95,11.5
"2016-02-05 01:31:00",1346513,5.7,49.14,6.624,1.26,2.762,98.42941,-4.701,-3.336,28.38,0,109.4,13.45,-3.97,11.1
"2016-02-05 01:31:30",1346514,5.46,50.14,6.131,1.212,2.338,98.41608,-4.735,-3.339,29.26,0,109.4,13.45,-4.00,12.1
"2016-02-05 01:32:00",1346515,5.127,52.23,6.212,1.196,2.322,98.40473,-4.764,-3.366,30.13,0,109.4,13.45,-4.03,14.2
"2016-02-05 01:32:30",1346516,5.041,53.6,6.071,1.145,2.396,98.40527,-4.763,-3.407,30.81,0,109.4,13.45,-4.03,15.6
"2016-02-05 01:33:00",1346517,4.77,54.27,6.37,1.234,2.283,98.40553,-4.762,-3.427,31.35,0,109.4,13.45,-4.03,16.3
"2016-02-05 01:33:30",1346518,3.905,55.81,6.521,1.391,1.056,98.3998,-4.777,-3.493,31.81,0,109.4,13.45,-4.04,17.8
"2016-02-05 01:34:00",1346519,2.551,52.25,2.452,0.502,-1.282,98.39217,-4.796,-3.687,31.99,0,109.4,13.45,-4.06,14.2
"2016-02-05 01:34:30",1346520,2.957,53.07,4.997,1.079,-0.635,98.39101,-4.799,-3.689,32.23,0,109.4,13.45,-4.06,15.1
"2016-02-05 01:35:00",1346521,4.123,56.79,6.412,1.254,2.1,98.39066,-4.8,-3.455,32.7,0,109.4,13.45,-4.06,18.8
"2016-02-05 01:35:30",1346522,4.515,57.15,5.81,1.206,2.511,98.38644,-4.811,-3.443,32.85,0,109.4,13.46,-4.08,19.2
"2016-02-05 01:36:00",1346523,4.704,57.17,6.435,1.154,2.477,98.3828,-4.82,-3.479,32.77,0,109.4,13.46,-4.08,19.2
"2016-02-05 01:36:30",1346524,4.704,54.67,6.492,1.234,1.983,98.37883,-4.83,-3.474,32.51,0,109.4,13.46,-4.09,16.7
"2016-02-05 01:37:00",1346525,5.018,54.93,6.397,1.347,1.227,98.37852,-4.831,-3.5,31.75,0,109.4,13.46,-4.10,16.9
"2016-02-05 01:37:30",1346526,4.642,52.28,6.212,1.233,-0.193,98.37655,-4.836,-3.601,30.1,0,109.4,13.46,-4.10,14.3
"2016-02-05 01:38:00",1346527,4.964,54.17,6.999,1.292,0.433,98.3732,-4.844,-3.622,29.24,0,109.4,13.46,-4.11,16.2
"2016-02-05 01:38:30",1346528,4.279,54.82,6.852,1.282,0.73,98.37655,-4.836,-3.563,29.33,0,109.4,13.46,-4.10,16.8
"2016-02-05 01:39:00",1346529,3.997,55.35,6.708,1.362,1.197,98.37739,-4.834,-3.555,30.05,0,109.3,13.46,-4.10,17.3
"2016-02-05 01:39:30",1346530,3.712,57.33,6.731,1.301,1.696,98.37933,-4.829,-3.565,30.79,0,109.4,13.47,-4.09,19.3
"2016-02-05 01:40:00",1346531,3.245,57.56,6.865,1.359,1.802,98.381,-4.824,-3.57,31.43,0,109.4,13.47,-4.09,19.6
"2016-02-05 01:40:30",1346532,3.207,55.43,6.044,1.348,0.847,98.37618,-4.837,-3.65,31.89,0,109.4,13.47,-4.10,17.4
"2016-02-05 01:41:00",1346533,2.835,52.35,5.488,1.216,0.23,98.37194,-4.847,-3.648,32.32,0,109.4,13.47,-4.11,14.3
"2016-02-05 01:41:30",1346534,3.745,54.8,6.936,1.309,0.739,98.36939,-4.854,-3.721,32.39,0,109.4,13.47,-4.12,16.8
"2016-02-05 01:42:00",1346535,3.709,55.54,7.217,1.334,1.025,98.36966,-4.853,-3.641,32.55,0,109.4,13.47,-4.12,17.5
"2016-02-05 01:42:30",1346536,4.655,60.98,6.799,1.381,1.632,98.36625,-4.862,-3.566,32.45,0,109.4,13.47,-4.13,23.0
"2016-02-05 01:43:00",1346537,4.829,59.23,7.094,1.361,0.84,98.36567,-4.863,-3.662,30.94,0,109.4,13.47,-4.13,21.2
"2016-02-05 01:43:30",1346538,5.186,62.92,6.476,1.324,1.393,98.36509,-4.865,-3.572,29.69,0,109.4,13.47,-4.13,24.9
"2016-02-05 01:44:00",1346539,5.386,62.66,6.804,1.208,1.575,98.36538,-4.864,-3.599,28.89,0,109.4,13.47,-4.13,24.7
"2016-02-05 01:44:30",1346540,4.636,61.95,7.22,1.426,0.279,98.36451,-4.866,-3.651,28.42,0,109.4,13.47,-4.13,24.0
"2016-02-05 01:45:00",1346541,4.34,59.28,6.93,1.231,0.541,98.35629,-4.887,-3.644,28.85,0,109.4,13.47,-4.15,21.3
"2016-02-05 01:45:30",1346542,4.024,54.31,6.783,1.227,-0.441,98.3509,-4.901,-3.709,28.87,0,109.4,13.47,-4.17,16.3